Home   Weather   Hermiston   Past weeks
Flag for USA

Past Weather in Hermiston, Oregon, USA — Yesterday and Last 2 Weeks

Now
61 °F

Mostly cloudy.


Feels Like: 61 °F
Forecast: 74 / 56 °F
Wind: 12 mph from Southwest

Location: Hermiston Municipal Airport

Current Time: Apr 23, 2019 at 9:07:21 am

Latest Report: Apr 23, 2019 at 7:53 am


Visibility: 10 mi

Pressure: 30.11 "Hg

Humidity: 65%

Dew Point: 49 °F

Location of HermistonLocation

Past Weather in Hermiston — Graph

°F

Hermiston Temperature Yesterday

Maximum temperature yesterday: 77 °F (at 3:53 pm)
Minimum temperature yesterday: 42 °F (at 4:53 am)
Average temperature yesterday: 60 °F

High & Low Weather Summary for the Past Weeks

 TemperatureHumidityPressure
High82 °F (Apr 19, 2:53 pm)93% (Apr 8, 7:14 am)30.29 "Hg (Apr 8, 7:14 am)
Low35 °F (Apr 15, 6:53 am)25% (Apr 22, 1:53 pm)29.64 "Hg (Apr 15, 6:53 pm)
Average56 °F61%30.01 "Hg
* Reported Apr 8 7:14 am — Apr 23 7:53 am, Hermiston. Weather by CustomWeather, © 2019

Note: Actual official high and low records may vary slightly from our data, if they occured in-between our weather recording intervals... More about our weather records

Advertising

Hermiston Weather History for the Previous 24 Hours

Scroll right to see more
 ConditionsComfort  
Time TempWeatherWind HumidityBarometerVisibility
7:53 am
Tue, Apr 23
61 °FMostly cloudy.12 mph65%30.11 "Hg10 mi
6:53 am58 °FPartly sunny.8 mph70%30.10 "Hg10 mi
5:53 am58 °FPassing clouds.14 mph65%30.09 "Hg10 mi
4:53 am59 °FPassing clouds.10 mph60%30.10 "Hg10 mi
3:53 am60 °FOvercast.12 mph60%30.09 "Hg10 mi
2:53 am60 °FOvercast.7 mph60%30.11 "Hg10 mi
1:53 am59 °FPassing clouds.9 mph62%30.12 "Hg10 mi
12:53 am60 °FOvercast.8 mph58%30.13 "Hg10 mi
11:53 pm
Mon, Apr 22
61 °FPassing clouds.14 mph56%30.13 "Hg10 mi
10:53 pm61 °FOvercast.15 mph58%30.13 "Hg10 mi
9:53 pm63 °FLight rain. Overcast.13 mph52%30.13 "Hg10 mi
8:53 pm67 °FMostly cloudy.13 mph41%30.12 "Hg10 mi
7:53 pm69 °FOvercast.14 mph39%30.10 "Hg10 mi
6:53 pm72 °FMore clouds than sun.15 mph37%30.09 "Hg10 mi
5:53 pm73 °FPassing clouds.10 mph30%30.10 "Hg10 mi
4:53 pm74 °FSunny.13 mph27%30.11 "Hg10 mi
3:53 pm77 °FSunny.14 mph26%30.12 "Hg10 mi
2:53 pm76 °FPartly sunny.14 mph25%30.15 "Hg10 mi
1:53 pm71 °FScattered clouds.8 mph25%30.19 "Hg10 mi
12:53 pm67 °FSunny.8 mph31%30.20 "Hg10 mi
11:53 am66 °FSunny.6 mph42%30.22 "Hg10 mi
10:53 am63 °FSunny.7 mph45%30.23 "Hg10 mi
9:53 am60 °FSunny.9 mph47%30.25 "Hg10 mi
Weather by CustomWeather, © 2019

See weather overview